Regional Weather Roundup
Issued by NWS

Home | Current Version | Previous Version | Graphics & Text | Print | Product List | Glossary On
Versions: 1 2 3 4 5 6 7 8 9 10 11 12 13 14 15 16 17 18 19 20 21 22 23 24 25 26 27
000
ASUS45 KSLC 261510
RWRUT

UTAH REGIONAL WEATHER ROUNDUP
NATIONAL WEATHER SERVICE SALT LAKE CITY UT
900 AM MDT SAT MAY 26 2018

UTZ001>011-023>025-261600-

NORTHERN UTAH

CITY           SKY/WX    TMP DP  RH WIND       PRES   REMARKS
BRIGHAM CITY   SUNNY     65  40  38 N5        29.86S
HILL AFB       SUNNY     65  36  34 E10       29.88S
LOGAN          SUNNY     58  46  64 CALM      29.88S
OGDEN          SUNNY     66  35  31 S9        29.86S
SALT LAKE CITY SUNNY     74  27  17 S16       29.84F
TOOELE VALLEY  SUNNY     73  30  20 S10       29.86F
WENDOVER       SUNNY     66  38  35 E6        29.86R
HEBER CITY       N/A     55  34  44 CALM      29.94F
WEST JORDAN    SUNNY     69  35  28 SE10      29.88F

$$

UTZ011>015-024>027-261600-

CENTRAL/NORTHEAST UTAH

CITY           SKY/WX    TMP DP  RH WIND       PRES   REMARKS
PROVO AIRPORT  SUNNY     67  38  34 SE8       29.90F
MOAB/CANYONLAN SUNNY     76   9   7 SE7       29.90F
DELTA          SUNNY     64  21  19 S7        29.90F
PRICE          SUNNY     67  13  12 SE6       29.97S
ROOSEVELT      SUNNY     64  23  20 NE5       29.97R
VERNAL         SUNNY     70  17  13 VRB3      29.95S

$$

UTZ013>016-019>022-027-261600-

SOUTHERN UTAH

CITY           SKY/WX    TMP DP  RH WIND       PRES   REMARKS
BRYCE CANYON   SUNNY     57  19  22 S17G25    30.06F
CEDAR CITY     SUNNY     62  19  19 W9        29.93F
MILFORD        SUNNY     62  22  21 SW7       29.90F
ST GEORGE      SUNNY     71  20  14 E5        29.86R
HANKSVILLE     SUNNY     75  14   9 E3        29.92S
BLANDING         N/A     70  18  14 SE13      30.12S

$$

REGIONAL REPORTS     COLORADO/ARIZONA

CITY           SKY/WX    TMP DP  RH WIND       PRES   REMARKS
CRAIG, CO      SUNNY     65  35  33 E10       30.04F
GRAND JUNCTION SUNNY     75  17  11 E18       29.95F
RIFLE, CO      SUNNY     65  25  22 CALM      30.02F
MONTROSE, CO   SUNNY     69  19  15 E13       30.06F
CORTEZ, CO     SUNNY     65  27  23 CALM      30.07F
COLORADO CITY    N/A     68  27  21 SE14G21   29.97S
PAGE, AZ       SUNNY     74  20  13 S9G18     29.91F
GRAND CANYON   SUNNY     59  24  26 S9        30.05S
KINGMAN, AZ    SUNNY     67  35  30 SW15      29.90S
FLAGSTAFF, AZ  SUNNY     58  23  26 SW17G30   30.07F

$$

REGIONAL REPORTS    NEVADA/IDAHO/WYOMING

CITY           SKY/WX    TMP DP  RH WIND       PRES   REMARKS
LAS VEGAS, NV  SUNNY     65  39  38 S14G25    29.83R
ELY, NY        SUNNY     53  23  31 S5        29.95F
ELKO, NV       SUNNY     57  42  57 SW14      29.93S
POCATELLO, ID  SUNNY     60  46  59 W14       29.92S
BURLEY, ID     SUNNY     63  46  54 NW7       29.89R
FORT BRIDGER,    N/A     64  28  25 W5        30.03S
EVANSTON, WY   SUNNY     59  35  40 SW7       30.01S
ROCK SPRINGS,  SUNNY     63  29  27 CALM      29.99S

$$




USA.gov is the U.S. government's official web portal to all federal, state and local government web resources and services.